Theta_e
304 303 303 304 305 307 307 307 306 306 305 304 304 304 304 303 303 304 304 304 305 305 306 306 306 306 306 307 307 306 307 307 307 311 314 314 313 312 310 309 308 309 308 309 313 315 313 313 314 313 313 314 314 315 316 316 316 316 316 315 315 316 317 318 319 318 318 319 320 320 319 318 319 320 324 325 323 322 322 323 327 332 336 336 338 341 345 348
304 305 306 308 309 309 308 307 307 307 306 305 304 304 304 304 304 303 304 305 305 306 306 306 306 306 306 306 306 306 306 307 307 313 315 312 310 309 308 308 308 308 308 312 315 314 313 314 313 313 313 314 315 315 316 316 316 316 316 315 315 317 319 320 319 319 318 318 319 320 319 318 318 320 324 325 323 323 320 321 328 332 337 339 342 345 347 348
308 309 310 310 310 309 308 308 307 306 305 305 305 304 304 305 304 303 303 304 304 306 305 306 306 306 306 306 306 306 306 309 313 317 316 312 310 309 308 307 308 308 310 314 315 314 314 313 313 313 313 315 315 314 316 316 315 316 316 315 316 318 319 319 318 318 317 317 318 319 319 319 319 321 324 324 323 324 321 321 327 331 337 341 345 347 347 347
311 311 311 311 310 310 309 309 308 306 304 304 304 304 304 304 305 304 304 303 304 305 305 305 306 306 306 306 305 306 309 314 319 320 315 312 310 309 308 307 308 309 312 316 315 313 313 312 313 313 313 315 315 315 316 315 316 316 315 315 317 318 317 318 318 317 317 316 317 318 318 318 319 320 321 324 323 324 323 322 325 330 337 341 344 346 347 347
311 310 311 311 311 310 310 311 311 309 307 305 304 304 304 304 304 305 304 303 303 303 304 305 305 305 305 305 305 306 313 318 319 319 314 311 310 309 308 307 308 310 314 315 313 312 312 312 312 312 314 315 316 315 315 315 316 315 316 317 317 318 316 317 317 316 316 316 317 318 318 317 319 319 320 324 323 323 324 323 324 329 334 339 343 344 345 346
311 311 311 311 311 311 312 313 313 313 312 310 307 304 304 304 304 304 305 304 303 303 304 304 304 305 304 306 307 310 317 318 317 319 315 312 310 308 307 307 309 312 314 314 313 312 312 312 312 313 314 314 315 315 315 316 315 315 316 317 317 317 316 317 317 316 316 316 317 317 317 318 318 319 321 323 324 326 327 326 325 330 334 337 342 343 344 345
312 312 311 311 312 312 313 314 313 313 313 313 312 309 305 305 305 305 305 305 304 303 303 304 304 304 305 309 311 315 320 319 317 316 312 312 311 308 307 308 310 312 314 314 313 312 312 313 313 314 314 314 315 315 316 316 315 314 315 316 317 316 316 316 316 316 316 316 317 318 318 318 318 318 320 323 326 328 329 330 329 333 336 337 341 343 343 343
312 313 312 311 312 312 313 313 312 312 312 313 315 314 309 305 305 305 305 305 305 304 303 304 303 304 308 311 314 320 321 318 316 312 310 312 311 309 309 309 312 313 313 313 313 313 312 313 313 313 314 314 315 316 315 315 315 315 314 316 316 316 316 315 316 316 316 317 316 317 317 318 319 318 320 323 327 328 328 329 331 334 335 337 340 341 342 342
313 313 313 312 312 312 312 311 311 311 311 312 314 317 313 307 305 305 305 305 305 304 303 304 304 306 309 310 315 322 318 314 312 310 311 313 311 310 311 312 313 314 314 314 313 313 312 313 313 314 314 315 315 314 315 314 314 315 314 315 316 316 316 316 316 316 316 317 316 317 317 318 319 319 320 324 327 328 328 329 332 334 332 335 339 340 341 341
312 313 314 313 312 312 312 311 310 310 311 312 313 317 316 309 305 306 305 305 305 304 304 304 305 308 309 312 320 322 314 312 312 312 313 312 311 311 313 314 313 313 314 314 313 312 312 314 314 314 314 315 315 314 315 314 314 316 315 316 315 316 316 316 317 316 316 317 317 317 317 318 320 319 320 324 328 328 329 331 331 334 334 335 338 339 340 340
309 311 313 314 313 312 312 311 310 309 310 312 313 316 317 309 306 306 305 305 305 304 304 305 307 309 309 315 322 318 312 313 313 313 313 313 313 313 314 314 313 314 315 313 313 312 313 314 314 314 314 315 314 314 316 315 315 316 315 316 315 316 316 316 316 316 316 316 317 318 318 319 319 319 321 324 326 327 330 331 329 332 335 335 336 337 338 339
306 308 310 312 313 312 312 310 309 309 309 313 314 315 315 310 308 308 306 305 305 304 305 306 308 309 312 317 321 314 313 314 313 313 312 312 313 313 314 313 314 315 314 313 312 313 314 314 314 314 315 315 315 314 315 315 315 315 315 315 315 316 316 316 317 317 316 317 318 318 317 318 319 319 322 324 325 326 329 330 329 330 332 333 335 336 338 340
304 306 307 309 311 311 311 310 309 309 309 313 314 314 314 312 311 311 309 307 306 306 306 306 309 310 314 320 317 312 314 315 313 313 312 311 312 312 312 311 313 313 313 313 313 313 313 314 314 315 316 315 316 315 315 315 315 315 315 315 315 315 315 316 317 317 317 317 318 317 315 316 318 320 320 322 324 326 327 328 329 330 330 331 333 336 338 339
304 304 306 307 308 309 310 310 309 309 309 313 314 314 314 313 312 312 312 311 309 308 306 308 310 311 317 320 314 312 314 315 314 312 312 312 311 310 310 311 311 311 312 312 313 313 313 313 313 314 315 315 316 316 315 316 315 314 315 315 315 314 314 317 317 317 317 317 318 317 313 316 319 319 320 322 322 324 325 326 329 329 329 331 333 335 338 340
304 304 304 305 306 307 309 309 309 308 309 314 314 313 313 313 313 312 314 313 311 310 307 309 310 313 320 320 313 313 312 314 315 313 313 312 311 311 311 311 311 312 312 312 313 313 313 314 314 315 315 315 315 315 315 316 315 315 314 313 314 314 314 317 317 317 317 317 318 317 313 317 319 319 319 320 320 322 324 325 327 327 328 332 334 334 336 338
304 304 304 304 305 306 307 308 308 307 310 314 314 312 312 313 312 312 314 313 312 311 309 312 315 315 322 320 315 315 313 315 316 314 313 312 313 313 312 312 312 312 312 313 313 313 314 314 314 316 316 315 314 315 316 315 315 315 314 313 314 314 314 317 317 318 318 317 318 316 315 317 318 319 319 319 320 321 322 324 326 326 328 331 332 333 334 335
304 304 305 304 304 305 306 307 306 308 312 314 313 313 312 313 312 312 313 313 312 311 310 314 318 317 319 318 317 316 316 317 316 314 314 313 314 313 312 313 313 313 313 313 313 313 314 314 315 315 315 315 316 316 315 313 313 314 314 315 316 315 315 315 316 319 318 317 317 316 316 317 318 319 319 319 319 320 321 322 325 326 329 332 331 331 333 335
304 304 305 304 304 305 306 306 308 311 314 314 313 313 312 313 313 313 314 314 312 311 311 312 315 317 318 316 317 318 317 316 315 315 314 314 314 313 312 313 313 313 313 314 314 314 314 315 315 316 316 316 316 316 314 313 314 314 314 315 315 315 315 315 316 318 318 317 317 317 317 318 319 319 319 319 319 320 320 321 324 325 328 331 329 328 330 333
304 304 304 304 304 305 306 308 311 314 314 314 313 313 315 317 317 314 315 316 316 316 316 314 315 317 317 316 317 317 316 316 315 315 314 314 314 313 313 313 313 314 314 315 314 314 315 316 316 316 316 317 317 317 316 317 317 316 316 315 315 315 314 316 317 318 319 317 317 318 317 317 318 318 319 320 319 320 320 321 324 325 327 328 328 330 330 332
304 305 304 305 305 306 308 311 314 314 314 314 313 315 320 322 321 319 317 318 320 320 318 316 315 315 316 317 316 316 316 315 315 314 314 314 314 313 314 314 314 314 315 316 316 316 316 316 316 316 317 320 320 320 319 318 318 318 318 316 316 315 314 317 319 318 319 317 317 318 317 318 318 319 319 320 319 320 321 321 324 325 326 326 327 330 330 331
304 305 305 305 307 308 310 313 314 313 314 313 313 318 322 318 317 318 317 318 319 317 316 316 315 315 317 317 316 316 316 315 315 315 315 314 314 313 314 314 314 314 315 316 318 318 317 315 316 318 319 320 320 320 319 318 318 318 317 315 315 314 315 317 319 319 319 318 316 317 318 318 319 319 319 320 319 320 321 321 322 323 324 325 325 327 328 331
304 305 305 306 308 309 311 313 314 313 314 313 315 320 318 314 315 317 316 317 318 316 315 315 315 315 316 317 316 317 317 316 315 315 314 314 314 314 314 314 313 315 316 317 316 317 316 315 317 320 319 318 318 318 318 318 319 317 316 315 314 315 315 318 320 319 319 317 317 317 318 318 320 320 320 321 320 319 320 320 321 321 322 324 324 326 329 330
303 305 305 307 309 310 312 313 313 314 313 313 317 319 316 315 315 315 316 319 320 317 315 315 314 314 315 316 316 316 317 318 316 315 314 314 315 315 315 314 314 315 316 316 315 315 314 315 318 319 318 318 318 318 318 318 318 317 316 314 314 315 315 315 318 320 319 319 317 318 318 319 320 319 319 321 320 320 320 319 320 321 322 323 323 325 327 328
303 304 305 307 308 309 311 313 313 314 313 313 317 317 315 315 315 315 318 321 320 318 316 315 315 314 316 317 316 316 317 318 317 316 314 314 316 315 315 316 315 314 315 316 315 314 315 317 318 318 317 317 318 319 319 317 316 317 318 315 315 317 316 316 318 320 320 320 319 317 316 316 318 318 318 320 320 320 320 320 322 323 324 324 324 325 326 327
303 303 305 306 307 309 310 311 313 315 315 315 317 316 315 315 315 315 319 322 321 318 316 316 315 316 317 317 316 316 317 317 317 316 315 315 316 315 315 316 315 315 315 315 315 314 315 317 317 316 317 316 317 318 319 317 315 316 318 318 317 318 318 318 319 319 318 317 319 318 314 314 316 317 318 320 320 320 321 321 322 322 322 323 323 324 325 326
304 303 304 305 306 307 309 313 316 316 315 316 317 316 315 316 315 315 321 323 321 317 315 315 315 316 317 316 316 316 317 317 316 317 316 315 316 315 316 315 315 315 316 316 315 314 315 317 316 316 317 317 317 317 319 319 315 315 318 319 318 318 318 319 318 318 315 314 318 320 316 314 315 317 319 320 320 320 320 319 319 320 319 320 320 321 323 324
305 304 304 304 305 305 309 316 318 315 314 317 317 315 315 316 313 316 323 322 318 316 315 316 316 316 316 317 316 316 316 316 316 316 316 315 316 315 315 315 315 315 315 316 315 315 317 316 316 316 317 317 317 316 318 319 316 316 319 319 318 317 317 318 318 316 315 315 318 318 317 314 313 316 319 320 320 319 320 319 319 319 319 319 319 319 320 322
306 305 304 305 306 307 308 312 314 315 315 316 315 314 316 314 313 320 324 320 318 317 316 316 315 315 316 316 316 316 317 316 316 315 315 315 315 316 315 315 315 315 316 315 313 315 317 317 316 316 316 316 316 317 318 319 317 317 320 319 318 318 318 319 318 316 317 316 315 316 317 315 314 315 317 319 319 319 319 320 320 320 319 319 319 319 320 322
306 307 305 305 308 310 309 308 310 314 315 313 314 315 314 313 317 324 323 319 319 316 315 315 314 315 315 315 315 316 317 316 316 315 315 315 315 316 315 315 315 315 315 314 314 316 317 316 316 316 316 315 316 317 317 318 318 319 319 318 318 319 319 320 318 316 317 316 315 316 316 315 314 314 316 318 318 318 319 319 320 320 320 319 321 321 321 321
306 308 306 305 311 314 313 311 311 313 314 314 315 315 314 316 322 322 319 319 318 315 316 315 314 315 315 314 315 315 316 317 316 315 315 315 315 315 315 316 316 315 315 315 315 316 316 316 316 315 315 315 316 317 317 317 318 319 318 317 317 318 319 318 318 316 315 315 315 315 315 315 315 314 315 319 319 319 320 320 320 321 320 320 321 320 320 320
306 308 307 306 311 316 316 317 317 315 314 312 311 313 317 321 321 318 317 318 315 315 315 314 315 315 314 314 314 315 315 315 316 315 315 315 315 315 315 315 315 315 315 315 315 316 316 315 314 314 314 315 315 315 316 316 316 318 317 316 316 317 317 317 317 316 315 315 314 314 315 315 314 313 314 318 319 319 319 320 321 321 321 321 320 320 319 320
304 307 309 311 312 314 316 318 317 314 311 308 308 315 320 319 317 316 316 316 314 314 315 314 315 314 314 315 314 315 315 315 315 315 315 315 315 315 315 314 314 314 314 314 315 315 315 315 315 315 315 315 314 313 314 315 315 316 316 316 316 315 316 316 316 315 315 315 315 315 316 315 314 314 316 318 318 318 319 319 320 321 321 320 319 319 320 320
304 305 308 313 314 314 316 316 314 312 309 308 313 318 318 316 316 314 313 314 314 314 314 315 314 313 314 314 313 314 315 315 315 315 315 315 315 315 315 315 315 315 314 314 314 314 314 315 315 315 315 314 314 313 313 314 314 315 315 315 315 314 316 316 315 314 314 314 315 316 316 315 313 315 318 319 318 318 318 319 319 320 320 320 319 319 320 321
304 304 306 310 312 313 314 313 313 312 310 313 318 318 316 315 315 313 313 314 314 314 314 314 314 314 314 313 314 314 314 314 314 314 315 314 314 314 315 315 314 314 314 314 313 313 312 313 314 315 315 315 314 313 314 314 314 315 315 315 314 314 315 315 314 313 313 313 314 316 316 314 313 316 318 319 319 318 317 318 318 318 318 319 319 319 320 322
303 305 304 306 310 312 312 313 313 311 311 315 317 314 314 315 313 311 312 313 314 314 313 313 314 313 313 313 314 314 314 313 313 313 314 313 314 314 314 315 314 314 314 313 313 313 311 311 313 314 315 314 314 314 315 314 313 315 316 314 314 314 315 314 313 314 314 314 314 315 315 314 316 318 319 318 318 317 317 317 317 318 318 318 319 320 321 322
306 309 307 308 313 313 311 313 314 312 312 316 315 313 314 314 311 312 312 313 314 313 313 313 313 312 312 313 313 313 313 313 313 313 313 313 313 313 314 315 315 314 313 313 313 312 311 312 313 314 314 314 314 314 315 314 312 314 314 313 314 315 315 313 313 315 315 314 314 313 313 314 316 318 317 316 316 316 316 317 317 318 319 318 319 320 321 322
307 311 312 314 316 312 309 312 315 314 314 315 313 314 313 312 313 313 313 314 313 312 312 312 312 312 311 311 312 313 313 312 312 312 312 313 313 314 314 314 314 314 314 313 313 314 313 312 313 313 314 314 315 314 314 314 314 313 312 314 314 315 315 314 314 314 315 314 314 313 313 313 313 315 316 316 316 315 315 316 317 318 318 318 319 319 320 321
304 309 313 315 314 310 307 311 315 315 315 314 314 314 313 312 314 313 313 313 312 312 311 310 312 312 311 311 312 312 313 311 312 312 311 311 312 314 313 314 314 313 314 314 313 314 315 313 313 313 313 314 315 314 313 313 314 313 313 314 314 314 313 313 314 314 315 315 314 312 313 313 312 314 316 317 316 316 316 315 317 317 318 318 318 319 319 320
306 310 312 313 312 310 308 310 314 315 314 314 313 313 313 311 313 314 313 312 312 311 311 311 312 312 312 312 311 312 312 311 311 312 311 311 312 314 313 313 313 313 314 314 313 314 316 314 313 313 313 314 314 313 312 312 313 313 313 314 313 313 313 313 313 314 315 315 315 314 314 313 314 316 316 317 317 316 316 316 317 317 318 318 318 318 318 319
311 312 312 314 313 311 310 312 315 314 313 314 313 313 313 312 314 315 313 311 311 312 311 312 312 312 312 312 311 312 312 312 312 311 311 312 312 313 312 312 313 313 313 312 312 313 314 314 313 313 313 313 313 313 312 312 313 313 314 313 313 314 313 314 314 313 313 314 314 315 314 313 316 318 317 317 318 317 316 316 316 317 317 317 318 317 317 318
311 310 311 314 312 310 311 313 314 314 313 313 313 312 313 313 314 314 313 311 311 311 311 312 312 313 312 312 312 312 312 312 312 311 311 311 311 312 313 313 312 312 312 312 311 313 312 312 313 313 312 312 312 313 314 314 314 314 314 314 314 314 314 314 315 314 313 313 313 314 314 314 317 318 316 317 318 317 316 317 317 317 317 317 317 317 317 317
310 310 311 312 310 309 311 313 313 313 313 313 313 312 313 313 312 313 313 312 311 311 312 312 312 312 312 312 312 312 311 312 311 311 311 311 311 312 312 313 312 311 311 311 311 313 312 312 312 311 312 311 312 313 313 313 314 313 314 314 314 314 314 313 314 315 314 313 313 313 313 316 318 318 316 318 318 317 317 317 317 317 316 316 316 316 316 316
312 310 311 310 308 308 310 311 311 312 313 312 312 313 313 312 311 311 312 311 311 311 312 311 312 312 312 312 312 312 312 312 311 311 311 311 311 312 312 312 311 310 310 310 310 312 312 311 310 309 309 310 311 312 312 313 312 312 313 313 313 313 313 313 313 314 315 314 314 313 313 316 318 318 317 319 317 316 316 316 316 316 316 315 316 315 315 315
310 308 310 309 307 307 308 310 309 310 312 313 312 312 312 311 311 310 310 311 311 311 312 312 312 313 312 312 312 312 312 312 311 311 311 311 312 312 312 312 310 309 310 311 312 313 312 311 310 309 310 310 310 310 311 311 311 311 312 312 312 313 313 314 314 314 315 314 313 313 312 314 317 317 317 316 316 315 316 315 315 315 315 315 315 315 315 315
310 310 311 309 308 309 309 310 311 310 311 313 313 312 311 310 310 310 311 311 312 312 311 312 312 312 311 311 311 311 311 311 311 311 311 310 311 312 312 311 310 309 312 312 312 312 311 311 310 310 310 311 310 310 310 311 311 312 312 312 312 313 313 314 313 313 314 313 313 312 311 313 316 316 315 315 315 315 315 315 315 315 314 314 314 315 315 315
311 310 311 310 309 309 310 311 311 310 310 312 312 312 311 311 311 310 310 310 311 311 310 311 311 311 310 310 310 310 310 310 310 310 310 310 311 311 311 311 310 311 312 311 310 310 311 311 310 310 310 311 310 310 310 311 311 311 312 312 312 312 313 313 312 312 313 312 312 312 312 313 314 314 314 314 315 314 314 315 314 314 314 314 314 314 314 314
309 310 309 310 310 310 310 311 310 311 311 310 311 311 311 311 311 310 309 309 310 310 309 310 310 310 310 310 311 310 310 310 310 310 309 309 310 311 310 310 310 311 310 310 310 310 310 310 311 311 311 311 310 311 310 311 311 310 311 311 312 312 312 313 312 312 313 312 311 312 312 313 313 313 313 313 314 314 314 314 314 313 313 314 314 313 313 313
308 309 308 308 310 311 310 310 310 310 310 310 310 311 311 311 310 310 310 309 310 309 309 310 310 309 309 310 311 311 310 310 311 310 310 310 310 310 310 310 310 310 309 310 311 310 310 310 311 311 311 310 310 310 310 310 310 310 310 311 312 311 312 313 312 312 313 312 312 312 312 312 313 312 312 313 313 313 313 313 313 313 313 313 313 313 312 312
307 308 307 308 310 310 309 308 309 309 310 309 310 310 311 310 310 310 309 309 310 310 309 309 309 309 309 309 310 310 311 311 311 311 311 312 312 311 310 310 310 310 309 310 311 311 310 310 311 311 310 310 310 310 310 310 310 310 310 311 311 311 311 312 312 312 312 312 312 312 313 313 313 312 312 312 313 313 312 312 312 312 312 312 312 313 312 312
306 307 306 309 310 308 308 309 309 309 309 309 309 309 310 310 310 309 308 308 310 311 310 309 309 309 309 309 310 310 311 312 313 312 312 313 312 311 311 310 310 310 310 309 310 311 310 310 311 310 309 310 310 309 309 309 310 310 310 310 310 311 311 311 311 312 312 312 312 312 312 312 313 312 312 312 312 311 312 312 312 312 312 312 312 312 312 312
304 304 304 309 309 306 307 309 308 308 308 308 308 309 309 309 308 308 308 307 308 310 309 309 310 310 308 308 309 310 309 310 311 311 311 311 311 310 310 310 309 309 309 309 310 310 309 310 310 309 309 309 309 309 309 309 309 309 310 310 310 310 310 310 311 311 311 311 311 311 311 311 311 311 311 312 311 312 312 312 311 311 311 311 311 311 311 312
302 304 304 308 308 305 306 308 308 308 308 308 307 307 307 308 308 308 307 306 307 307 307 308 309 309 309 309 309 307 307 307 308 308 308 308 309 309 309 309 309 309 309 309 309 309 309 309 309 309 309 309 309 309 309 308 308 308 309 310 309 309 309 309 310 310 311 311 310 310 310 310 310 311 311 311 311 312 312 311 311 311 311 311 311 311 311 311
Wind_Speed
5 4 3 3 4 4 4 4 5 5 5 5 5 5 5 5 4 4 4 3 3 3 3 2 3 2 2 3 3 4 5 7 6 7 12 11 10 13 13 9 7 8 6 8 9 10 11 11 12 11 11 11 12 14 12 12 11 9 7 7 8 8 10 6 6 4 5 5 1 5 4 4 6 4 4 6 10 15 13 13 11 8 2 6 12 17 20 22
4 4 4 4 4 4 4 4 5 5 5 5 5 5 5 5 5 4 3 3 3 2 2 2 2 2 2 3 3 4 5 5 6 9 13 12 10 11 10 8 8 8 8 9 11 11 11 11 12 11 12 12 12 12 9 11 12 10 7 7 8 9 7 3 4 6 5 8 6 3 3 4 5 5 4 6 10 12 14 14 13 10 9 12 15 18 20 22
5 5 5 4 4 4 5 5 5 6 5 5 5 5 5 4 4 4 3 3 2 2 2 1 1 1 2 2 2 4 4 5 7 8 10 8 7 8 9 8 8 9 11 9 10 11 10 9 10 12 13 12 12 11 9 10 11 11 9 7 8 10 7 3 4 7 7 8 9 6 5 6 5 4 5 8 9 9 12 12 14 14 15 15 16 19 19 20
5 5 5 5 5 5 6 6 7 7 7 6 5 5 5 4 4 4 3 3 2 2 2 2 1 1 1 2 3 3 3 6 5 4 6 5 4 7 9 9 9 12 12 7 8 9 8 7 9 12 13 12 12 11 9 10 9 10 10 9 8 5 5 5 5 6 7 6 8 7 6 8 4 4 7 8 9 9 10 12 14 16 20 17 16 17 16 20
5 6 6 5 5 5 6 7 8 8 9 8 7 6 5 5 5 4 3 3 3 3 2 2 1 1 1 2 3 1 3 4 3 5 4 4 3 6 9 9 10 13 9 5 8 8 8 9 9 12 12 11 11 10 11 12 10 9 7 11 13 7 5 6 5 4 5 6 8 8 8 8 5 8 9 8 10 6 6 12 16 18 23 22 19 19 19 22
5 5 6 6 5 5 5 7 8 9 10 9 8 7 5 5 5 5 4 3 3 2 2 2 2 2 2 2 2 2 5 2 6 2 6 3 2 4 9 10 12 12 8 8 8 7 9 10 10 12 11 10 9 8 12 13 10 8 7 11 14 12 9 8 7 5 5 8 10 8 7 7 7 10 7 8 10 2 1 6 10 14 22 24 21 21 22 23
4 4 5 6 5 4 5 6 8 9 10 9 8 7 6 5 5 5 3 3 2 1 1 1 2 3 3 4 2 4 10 2 5 5 5 3 2 6 10 12 13 11 9 11 9 9 10 10 12 12 10 9 9 9 9 9 8 8 9 10 9 10 11 9 9 8 7 9 9 8 8 7 8 8 3 7 7 2 2 3 8 14 18 18 19 20 21 21
4 4 4 5 4 4 5 6 7 9 10 10 9 8 7 6 5 5 3 2 1 1 1 2 3 4 4 5 3 9 10 1 5 4 3 5 4 8 10 12 12 9 9 11 9 9 9 10 12 10 9 7 5 8 6 5 11 11 12 10 7 9 10 10 10 10 9 9 9 9 9 9 9 7 5 7 4 3 6 7 9 15 16 15 17 19 20 19
5 4 4 4 4 4 5 6 7 8 9 10 10 9 8 6 5 4 3 2 0 1 2 2 3 4 4 4 7 9 2 5 4 1 5 6 6 9 11 11 10 9 10 9 7 8 9 10 10 7 9 6 3 8 7 7 8 9 12 11 8 9 10 10 10 10 10 10 10 9 10 10 7 6 6 6 5 4 8 10 10 14 17 16 17 19 20 20
6 6 5 5 5 5 5 6 6 8 8 10 10 9 8 7 5 4 3 1 0 1 3 3 4 4 3 3 10 7 6 5 2 3 6 7 7 9 9 8 9 9 9 7 8 9 7 7 5 5 8 6 5 7 7 8 3 2 9 10 10 11 11 10 9 10 10 10 10 9 10 7 6 8 5 6 8 5 9 14 12 12 15 16 17 19 19 20
7 7 6 6 6 6 5 5 6 7 8 9 10 9 8 7 5 4 3 2 1 2 3 4 3 2 1 5 13 3 8 4 3 4 7 9 9 9 7 8 9 8 8 7 8 8 5 4 3 6 6 2 5 7 9 10 5 4 8 9 11 13 12 11 10 10 10 9 11 11 10 5 7 9 3 7 10 7 9 14 16 13 13 15 19 21 20 21
7 7 7 7 7 6 5 5 6 7 8 8 9 9 8 6 6 5 4 3 2 3 3 3 2 1 1 7 9 3 9 4 4 5 7 10 10 8 6 7 8 7 7 7 8 6 4 3 5 9 5 2 5 5 6 7 7 7 8 10 11 12 12 11 10 10 10 9 11 11 9 7 10 7 6 8 10 9 9 11 16 15 12 16 21 22 21 21
7 7 7 7 7 7 6 6 6 7 7 8 8 7 7 6 6 5 5 4 3 2 3 2 1 2 3 6 2 7 6 4 5 6 7 9 8 7 6 7 7 7 6 6 6 6 5 3 6 9 7 7 7 2 1 6 8 9 10 9 8 9 9 10 7 8 10 7 9 10 8 8 11 7 7 7 9 10 10 10 15 14 11 16 19 19 19 20
6 7 7 8 7 7 7 7 7 7 7 7 8 7 7 6 6 4 5 6 4 2 2 2 1 2 5 2 6 7 7 5 4 6 7 8 7 6 7 7 7 6 5 4 3 5 5 5 7 9 8 10 7 3 5 8 8 8 9 8 7 8 7 11 7 8 10 7 10 12 7 6 9 9 6 6 7 9 11 12 16 14 12 16 16 16 18 18
6 6 6 7 8 8 8 8 8 7 6 6 7 8 8 7 7 4 3 6 5 1 1 1 1 3 7 4 6 7 9 7 5 7 7 8 8 8 9 8 7 6 5 4 4 5 6 6 8 10 7 8 7 6 8 8 7 7 8 6 7 7 6 10 8 9 9 8 14 13 7 7 8 11 7 6 7 9 10 12 17 14 12 13 12 12 15 17
5 5 5 6 7 7 8 8 8 6 5 5 6 9 9 9 8 6 5 6 7 1 2 0 2 6 8 2 7 7 8 8 7 9 8 9 8 8 10 8 7 6 5 5 5 5 6 8 10 10 6 6 8 8 7 6 7 7 7 6 6 6 7 7 7 8 6 6 13 13 9 6 8 10 8 7 8 9 9 10 14 15 15 14 11 11 13 16
4 5 4 5 5 6 6 6 5 4 3 5 7 9 10 9 9 5 4 6 8 1 3 2 2 6 7 2 7 9 9 8 8 9 9 9 6 7 10 8 7 7 6 6 6 6 7 9 9 7 6 7 6 6 7 6 5 6 6 5 4 6 4 5 8 9 7 6 11 13 11 6 7 9 8 8 9 9 10 9 10 14 17 17 14 12 13 15
4 4 4 4 4 5 5 4 2 2 3 5 7 9 8 8 7 3 5 7 7 1 3 5 5 5 5 8 8 8 8 7 9 9 10 10 7 8 10 8 7 8 8 8 9 9 9 9 8 6 6 7 6 7 6 3 4 4 6 4 4 6 7 2 7 7 8 9 12 10 9 11 7 7 7 9 9 8 9 8 9 12 15 17 17 18 16 15
3 3 3 3 3 3 2 1 1 1 3 4 7 9 7 7 4 4 5 6 4 5 2 8 12 3 2 10 7 6 7 7 9 11 11 11 9 10 10 7 7 9 9 8 9 10 8 6 7 6 6 6 5 5 4 6 9 6 3 4 5 6 7 4 8 5 4 6 10 8 7 12 9 6 7 9 8 8 9 8 8 10 13 15 18 20 18 16
3 2 2 2 2 2 2 1 1 2 3 4 7 8 6 6 3 4 4 8 12 10 6 7 15 7 1 9 7 6 7 8 10 11 12 12 11 11 11 9 10 10 9 7 6 7 6 5 7 7 2 2 3 5 7 8 9 9 6 5 6 6 7 6 8 6 3 5 9 10 7 10 8 5 6 6 8 10 10 10 10 11 12 14 15 17 18 16
2 2 1 1 2 3 2 1 2 2 3 4 7 7 5 7 5 3 5 9 13 11 9 7 10 10 3 5 6 6 8 9 11 11 11 13 12 12 11 11 10 8 9 8 2 3 4 6 9 5 4 6 5 6 6 7 8 7 8 7 7 7 6 2 5 5 2 4 9 9 6 9 9 8 6 6 9 11 12 12 12 13 13 14 14 15 18 17
2 1 1 2 3 3 2 2 2 3 3 4 6 6 4 8 7 6 9 9 8 8 10 9 8 9 6 5 6 6 8 10 11 11 11 13 14 12 10 10 10 7 7 7 4 4 7 10 9 3 4 3 3 4 5 7 8 7 8 8 7 7 6 2 5 3 3 4 9 8 7 9 11 10 8 8 9 10 13 14 14 14 14 14 14 14 17 17
3 1 1 3 4 3 3 3 3 4 4 4 6 6 5 6 7 7 8 9 7 6 10 11 11 10 10 9 8 8 11 11 12 14 13 13 15 13 8 8 10 7 5 7 8 7 5 4 2 6 3 3 4 5 7 7 8 8 8 8 7 7 8 2 4 5 4 4 9 9 6 6 9 10 8 10 11 10 11 13 14 14 14 14 14 14 15 16
4 2 2 3 4 4 4 4 5 6 4 6 8 6 5 7 8 9 8 10 7 6 8 10 10 11 10 8 9 13 13 8 8 14 15 14 13 10 9 10 7 6 7 9 10 11 5 5 7 5 2 5 7 7 8 8 7 9 9 8 8 7 8 5 2 3 4 6 8 9 7 7 10 13 11 10 11 9 9 12 13 14 13 11 10 10 12 15
6 4 3 3 5 5 4 6 7 6 5 7 7 4 6 8 8 8 7 9 6 6 7 9 10 9 8 7 9 12 10 7 7 10 15 14 12 7 7 7 6 8 9 7 7 10 4 6 5 3 3 7 9 8 9 8 7 8 9 9 10 9 7 7 5 4 6 7 7 7 8 7 9 13 11 8 9 9 10 12 14 15 15 13 12 10 9 11
8 5 4 4 5 5 4 5 3 4 7 7 4 4 7 8 8 8 5 6 4 7 8 11 11 8 9 10 12 9 8 8 8 7 10 12 11 7 6 5 6 9 5 2 5 7 2 4 2 4 5 9 9 9 9 8 8 6 4 7 9 10 9 9 9 7 7 6 5 6 8 7 6 7 7 6 9 11 10 10 12 15 15 14 14 13 12 11
10 6 4 4 4 4 4 4 3 5 8 4 2 6 8 8 9 6 4 5 4 6 7 10 9 8 9 10 12 10 4 6 9 8 10 11 10 8 8 6 7 6 3 2 5 3 4 4 3 4 7 9 8 9 7 7 8 4 2 4 8 10 9 8 9 8 8 7 4 8 9 8 6 5 5 5 8 10 10 9 9 11 12 12 11 11 11 10
11 6 5 4 3 3 5 6 7 7 7 4 5 8 7 8 8 3 5 4 3 5 6 7 5 6 9 7 12 12 3 5 8 9 11 10 11 10 9 10 9 5 6 6 4 1 2 4 5 8 9 8 7 7 4 6 8 2 2 6 7 8 8 7 9 8 7 7 6 9 9 7 8 5 5 7 9 10 10 9 8 8 9 9 7 7 6 5
12 6 4 3 2 1 2 4 5 5 6 6 7 7 7 8 5 4 6 3 3 5 4 6 6 9 11 8 12 13 7 8 7 6 10 11 12 11 9 8 10 4 5 7 6 2 3 4 5 8 8 7 6 4 2 6 8 3 3 7 8 7 8 8 8 7 6 7 8 9 8 7 7 5 5 8 9 10 8 8 7 7 7 6 5 4 4 4
11 6 4 3 2 1 3 3 2 5 7 7 7 6 6 6 4 6 6 2 4 6 6 6 7 10 13 10 10 12 11 10 7 7 10 10 12 13 10 6 7 7 5 8 8 4 4 4 4 6 9 9 5 3 3 6 7 5 6 9 8 7 8 7 7 7 7 8 10 12 10 7 6 6 5 4 2 5 4 7 6 6 5 4 2 3 4 3
10 6 4 4 4 2 4 4 2 5 8 8 7 5 5 5 5 6 4 1 2 7 8 7 7 9 12 11 8 9 10 9 8 10 10 7 9 12 10 7 6 7 6 6 8 7 6 7 6 7 9 9 7 6 7 7 7 7 7 7 6 6 7 6 6 6 7 8 8 9 8 7 7 6 2 5 3 2 2 5 5 3 2 2 1 1 1 0
9 6 4 6 5 5 6 5 5 7 8 8 6 6 7 5 6 7 3 2 2 6 6 6 7 7 10 9 7 9 9 7 8 9 8 7 7 7 7 6 5 6 6 5 6 6 7 8 8 7 7 8 9 7 7 8 8 8 8 7 7 6 5 6 7 6 7 7 3 2 4 6 7 5 2 6 6 3 1 1 3 3 2 2 1 1 2 3
9 7 6 8 8 7 8 8 7 8 7 7 7 8 7 5 6 6 3 4 2 3 3 3 5 6 7 8 7 7 7 6 7 8 8 7 6 6 7 6 5 5 4 4 4 5 6 9 10 8 7 7 9 7 5 6 6 8 8 6 6 6 5 8 7 6 7 6 2 1 0 4 7 3 4 6 5 6 5 4 5 4 3 3 2 3 5 6
11 9 8 11 12 11 11 10 10 9 8 7 8 8 7 7 7 4 4 5 3 2 4 4 5 7 7 7 5 5 6 6 7 8 7 7 7 6 6 7 6 7 5 5 5 6 7 6 7 6 3 5 9 9 6 6 5 7 8 7 7 6 6 7 6 6 6 4 3 2 1 5 5 1 4 6 6 7 8 8 7 5 5 5 5 6 7 9
11 10 9 10 11 13 14 12 11 9 7 8 8 7 7 7 7 5 5 4 3 5 7 5 7 9 8 7 5 5 6 5 6 8 7 7 6 5 6 6 5 6 6 6 4 5 9 6 5 5 3 4 8 7 5 8 7 6 7 8 7 6 6 6 6 6 4 5 4 5 4 4 1 5 5 6 8 9 9 9 8 7 7 7 8 8 9 10
8 9 10 9 9 12 13 12 11 8 7 9 8 7 7 7 6 4 2 1 1 5 6 7 8 9 8 7 6 8 7 6 7 7 6 7 6 5 6 4 2 4 5 6 5 3 7 5 5 6 7 7 7 5 4 7 5 3 6 7 6 6 6 7 7 5 3 6 7 5 7 5 3 6 8 7 7 9 9 9 9 9 9 9 9 10 10 11
6 7 10 9 9 11 12 12 10 8 9 10 8 7 8 7 5 4 2 2 4 5 6 7 6 7 8 6 6 8 9 7 8 6 5 6 4 4 6 3 1 5 5 4 6 4 5 6 4 7 9 6 4 7 8 9 8 6 5 4 5 7 6 5 6 5 6 8 7 7 9 8 5 4 7 10 9 8 9 8 9 9 9 10 10 11 11 12
6 8 11 11 10 10 13 13 10 9 11 9 8 9 9 7 5 3 2 3 6 6 8 8 4 5 8 6 6 8 7 6 7 7 6 5 4 3 5 4 3 4 4 4 5 3 2 7 7 9 9 5 5 8 10 10 11 10 8 5 4 6 5 5 5 6 7 8 6 7 9 7 6 4 7 10 10 9 8 8 9 8 9 11 11 12 12 12
6 9 11 11 11 12 12 11 11 12 11 8 8 8 9 8 5 2 3 4 7 7 7 9 6 5 6 7 7 7 7 6 6 5 5 4 3 3 4 3 3 3 3 5 5 2 2 6 7 6 6 4 4 7 8 8 10 10 9 8 6 6 6 5 5 5 6 7 6 7 8 5 4 2 5 7 8 10 10 8 8 8 9 10 10 12 12 12
7 10 8 10 9 10 10 9 11 12 9 8 9 7 6 7 5 3 3 5 6 6 6 8 7 5 6 8 8 7 7 7 7 6 5 4 3 4 4 3 4 3 1 4 6 3 3 6 6 6 6 5 6 7 7 7 6 6 7 7 7 6 6 6 6 7 7 8 6 7 8 4 1 2 3 4 7 9 9 8 8 9 10 10 11 12 12 12
8 9 5 10 8 8 9 9 9 10 8 7 10 10 5 4 5 5 4 5 7 7 7 8 8 7 7 8 8 6 6 7 7 7 6 5 6 5 3 2 3 3 1 5 6 3 4 5 6 8 7 7 7 4 4 7 6 6 5 5 6 6 6 7 7 7 7 8 7 7 8 3 2 1 1 3 6 8 9 9 9 10 11 11 11 12 12 12
9 7 2 6 7 8 8 9 9 9 9 7 8 8 2 2 6 7 5 7 8 8 7 7 8 8 7 8 7 7 7 7 8 8 6 7 8 3 5 5 2 3 3 6 4 3 2 4 6 8 8 11 10 3 1 5 8 10 9 7 7 7 7 7 8 7 6 8 8 7 8 3 2 1 3 3 5 6 8 10 11 10 11 11 11 12 12 11
9 5 2 2 6 8 8 8 8 8 8 8 9 7 3 3 7 7 5 7 7 6 6 5 7 8 7 8 8 8 8 6 9 9 7 8 3 6 8 5 1 3 4 7 5 4 3 4 7 8 8 11 14 10 7 5 7 10 10 9 10 10 9 9 9 7 7 8 8 7 7 3 2 2 1 3 5 5 6 9 10 10 10 11 11 12 11 10
8 7 4 4 4 8 8 7 7 7 8 9 8 7 6 6 7 6 6 6 5 5 5 5 7 7 6 6 6 9 9 6 8 9 7 7 1 9 6 3 1 7 4 3 3 2 1 5 6 7 8 7 10 11 9 7 7 7 8 11 11 10 10 10 9 8 8 11 11 9 9 3 3 1 1 4 5 6 8 10 11 11 10 10 10 10 9 9
9 7 5 2 1 8 9 6 6 7 6 6 7 8 8 6 5 6 8 5 3 5 6 5 6 6 6 7 7 9 11 7 7 6 6 6 2 6 4 3 4 8 1 7 6 3 3 6 5 6 8 7 7 7 5 4 5 5 8 12 10 7 10 10 8 8 9 11 12 11 9 2 5 5 5 5 7 8 9 11 11 11 10 10 9 8 8 8
8 3 3 1 1 7 7 5 7 7 5 4 5 6 7 7 5 4 6 7 5 5 7 7 6 7 8 9 8 9 11 10 9 7 7 7 4 5 4 4 6 3 7 7 4 6 5 6 8 10 10 9 11 10 8 8 7 7 10 11 9 8 10 9 8 9 9 10 11 11 11 8 6 7 6 6 7 8 8 9 10 9 9 8 7 7 6 6
5 2 3 3 2 3 3 1 4 5 2 2 3 2 5 8 5 4 4 5 3 4 7 7 7 8 8 9 9 9 11 11 11 10 9 9 7 5 6 5 5 4 6 2 5 4 6 7 10 13 14 14 15 16 16 14 13 13 13 14 14 13 13 10 9 10 11 10 11 11 12 12 9 7 6 6 7 7 7 7 9 8 7 6 6 5 4 5
4 2 4 5 3 2 1 2 5 4 2 2 2 1 4 7 6 3 3 3 2 3 5 5 7 9 9 9 8 7 10 11 10 10 10 9 8 4 5 6 7 7 5 7 7 4 6 8 10 13 15 15 16 17 17 16 16 16 16 16 17 17 17 15 14 14 13 11 12 13 14 13 11 9 8 5 4 7 9 9 10 9 8 7 7 6 6 6
7 4 5 5 4 3 4 5 6 5 2 2 1 1 4 6 5 3 2 3 4 3 3 5 7 7 6 7 8 7 8 8 8 8 8 6 8 6 4 7 7 6 7 10 7 4 5 7 9 12 13 15 16 16 16 16 16 17 17 18 18 18 19 18 18 18 17 16 16 17 18 17 13 10 12 10 6 7 9 10 12 12 12 12 11 10 9 8
9 6 6 8 4 3 4 5 5 5 2 0 1 1 3 4 3 3 2 3 4 3 3 7 8 5 4 6 6 4 4 6 4 3 3 4 6 6 6 7 6 6 9 8 5 4 3 5 7 8 10 13 14 15 16 17 18 18 18 19 19 18 18 18 18 17 17 17 18 17 17 15 11 11 14 15 15 14 11 11 13 14 14 13 12 11 10 8
9 7 8 9 4 3 5 3 2 5 3 1 2 2 2 2 2 4 3 3 4 2 3 7 6 4 6 7 3 3 6 7 6 4 3 5 5 5 5 6 5 6 8 7 5 4 4 6 8 8 9 10 11 15 15 13 15 19 18 17 18 18 16 15 15 14 14 14 15 15 13 10 9 10 13 16 17 17 17 17 16 15 15 15 14 13 12 10
11 8 9 9 3 2 5 3 1 3 1 3 4 3 3 3 2 3 3 2 1 2 4 6 6 5 8 5 2 5 6 7 7 6 5 6 7 8 7 6 6 6 6 6 6 6 6 7 7 7 9 9 11 15 11 7 9 13 11 11 16 18 17 16 15 15 15 14 12 11 10 10 10 8 9 12 12 13 15 14 13 14 14 14 14 15 14 12
Wind_Direction
337 346 346 352 349 343 343 340 339 336 331 330 328 334 338 339 340 327 317 294 278 263 242 234 237 253 256 260 263 258 264 263 258 259 256 245 230 233 239 239 224 211 190 172 180 204 207 210 218 210 219 218 220 231 215 213 227 226 231 239 243 247 248 255 255 276 342 286 112 71 23 334 298 316 285 258 242 242 239 223 196 177 152 84 116 138 159 165
6 14 15 12 4 3 2 359 354 344 337 333 327 332 338 343 346 331 318 302 286 267 237 226 234 248 256 262 267 267 265 252 255 256 251 248 238 233 236 229 210 194 170 175 196 207 207 210 210 206 217 219 213 216 207 206 219 228 234 238 241 250 263 312 303 319 331 295 323 355 327 325 300 313 306 269 247 224 229 218 183 167 117 103 124 140 158 164
24 24 25 22 20 21 18 16 5 356 346 334 329 327 331 340 345 337 318 295 282 278 257 230 230 236 254 265 259 261 246 235 260 249 235 246 240 231 228 212 201 180 162 183 209 211 220 223 207 208 218 221 211 201 203 202 208 227 238 244 240 252 277 319 295 293 291 290 302 292 300 303 284 302 292 276 266 232 228 213 191 180 142 129 138 143 157 164
30 27 27 26 27 31 30 27 18 13 6 353 341 326 327 328 334 341 317 295 273 258 248 233 216 217 240 247 243 249 248 250 247 190 204 246 244 230 218 200 190 166 156 185 223 217 230 231 209 214 222 226 215 206 220 201 194 224 230 248 257 267 282 271 271 275 276 281 284 286 287 280 285 298 278 269 265 242 234 223 209 185 152 146 149 152 164 164
28 28 25 26 31 33 34 29 26 23 19 15 3 347 336 325 330 334 317 305 275 259 246 233 192 195 203 216 242 244 271 264 129 136 229 261 259 228 201 188 176 159 158 201 214 211 220 217 213 219 226 237 216 206 233 211 207 243 237 254 268 287 287 268 276 272 279 283 272 263 261 281 311 284 263 258 261 247 242 232 217 189 160 156 157 162 173 169
17 25 24 28 33 34 36 33 32 29 24 22 14 5 349 332 329 325 321 307 280 271 248 221 172 177 151 185 220 193 247 304 81 223 258 256 267 199 177 174 165 158 179 214 205 205 216 212 213 216 222 239 222 211 233 213 207 250 242 241 255 266 270 274 278 268 271 268 259 252 266 301 296 274 257 251 261 250 273 236 199 169 154 156 163 170 175 171
358 11 16 24 30 32 36 34 31 28 24 20 13 6 352 342 330 324 321 300 287 279 239 194 174 164 146 167 173 222 237 302 38 282 249 212 209 145 157 161 158 161 186 209 206 208 213 209 214 217 222 232 227 221 221 208 211 242 254 245 242 253 260 270 270 260 257 256 255 259 273 279 265 274 275 243 250 171 176 205 157 138 138 154 165 172 173 169
322 344 358 6 13 20 25 23 23 21 20 16 10 1 352 349 340 338 329 310 315 255 197 179 173 152 165 182 230 248 233 21 14 287 203 181 149 134 147 153 164 179 195 207 207 215 215 212 220 222 229 235 236 226 196 212 229 230 250 258 251 251 256 258 255 251 253 254 249 249 257 259 256 274 277 237 210 165 198 192 160 141 146 166 171 171 171 170
295 309 331 336 339 349 4 9 10 12 14 11 6 358 353 353 353 355 338 323 301 203 164 181 159 158 206 221 268 263 183 48 357 232 163 160 136 133 144 159 182 195 202 212 212 223 218 215 229 234 250 271 252 229 203 220 235 220 237 253 253 252 253 249 246 246 247 244 237 234 241 242 241 251 249 211 155 150 187 170 146 142 155 171 177 176 172 168
288 289 300 313 317 321 342 354 358 4 6 6 4 358 354 354 359 4 350 332 211 147 154 167 147 178 233 284 282 268 96 56 23 125 160 156 141 139 150 179 192 197 206 211 210 218 223 227 235 236 266 280 229 230 219 228 268 245 243 259 260 261 258 248 251 248 242 235 223 229 239 223 209 228 222 159 139 156 181 160 141 141 156 169 180 182 175 165
283 282 287 294 300 305 320 337 347 354 357 2 2 359 358 1 4 8 16 19 91 125 142 145 154 209 249 284 277 272 95 85 95 132 167 162 164 163 173 195 189 203 206 195 203 211 233 250 231 229 256 262 210 223 225 237 282 274 252 263 252 252 248 239 244 236 231 224 207 227 241 197 204 223 176 128 144 167 176 157 151 151 160 178 188 185 173 161
277 275 280 283 289 295 304 321 335 343 349 358 0 1 3 6 10 13 23 33 66 113 140 142 187 213 307 270 269 89 96 118 124 136 164 165 178 182 190 196 191 209 200 189 201 205 234 242 227 242 268 283 227 224 214 227 262 252 247 259 242 234 227 221 229 218 217 205 187 222 236 194 209 199 117 131 156 168 170 157 154 153 167 190 194 185 170 160
279 272 272 275 282 284 291 306 320 333 339 351 358 359 359 2 7 17 31 38 52 92 144 154 226 215 270 268 171 112 114 134 137 136 154 163 177 193 197 195 197 208 209 210 198 191 226 233 238 263 284 262 253 311 212 218 246 243 232 249 247 233 204 190 211 204 207 181 164 217 234 198 197 154 113 146 167 174 175 167 148 144 177 196 194 182 166 160
288 276 268 268 272 274 281 290 304 323 329 341 350 348 349 347 340 357 26 32 36 55 146 196 249 229 260 251 123 153 157 141 161 150 153 161 161 169 173 179 184 190 205 225 201 197 233 243 247 266 258 251 278 313 238 224 232 235 225 225 239 242 176 159 179 198 201 157 168 218 241 216 174 132 133 161 176 186 184 174 147 145 188 195 191 182 163 159
292 285 272 267 266 267 273 279 292 309 316 330 342 341 339 333 326 312 338 13 17 1 168 212 245 252 258 211 143 175 168 159 184 166 164 165 154 152 155 166 170 179 200 207 210 214 238 242 241 254 233 227 264 253 227 219 211 225 230 214 228 241 149 147 171 203 212 165 185 218 240 219 159 133 158 176 190 198 198 176 148 154 191 193 192 189 166 159
293 290 278 270 266 264 267 273 284 291 301 322 335 336 330 323 324 296 280 346 356 319 181 215 303 284 281 194 146 174 176 178 179 168 175 174 169 162 157 168 172 183 203 207 224 225 231 237 244 263 260 220 231 238 237 222 199 211 234 226 226 216 158 157 176 196 218 173 187 216 251 235 130 132 163 180 200 203 211 190 159 164 178 186 194 195 177 163
299 295 287 276 266 263 265 272 280 278 294 322 332 334 327 318 318 285 245 324 338 315 193 215 256 272 277 163 163 184 181 177 172 171 179 185 197 172 163 178 183 189 204 208 224 228 224 232 239 246 246 238 244 251 243 230 208 195 223 247 240 241 224 166 163 179 197 210 207 206 240 253 124 138 169 180 202 202 214 210 181 171 168 177 186 191 186 170
313 304 294 277 265 263 267 274 275 274 313 330 333 331 322 318 322 240 219 320 332 205 215 211 202 263 236 185 183 177 169 169 175 181 181 187 198 179 179 191 186 191 207 209 214 221 217 222 237 234 223 229 236 242 236 266 283 215 206 235 219 244 274 210 143 166 191 219 235 205 221 245 184 166 189 184 200 206 213 217 204 190 175 181 186 186 187 176
323 313 298 271 261 263 253 231 244 308 330 335 338 331 312 305 306 207 229 302 262 212 260 190 194 269 119 167 169 145 160 171 175 185 186 187 191 192 202 213 205 205 213 206 193 207 219 216 231 239 228 216 213 252 306 352 331 317 268 263 245 221 234 202 116 118 215 230 246 220 219 247 221 198 214 191 195 216 219 215 213 208 194 197 192 176 175 181
327 325 294 262 236 211 179 182 282 336 331 348 348 326 306 302 269 186 223 248 236 251 296 187 196 240 119 154 157 144 162 175 182 190 190 189 193 201 211 215 213 216 231 228 172 188 233 238 232 237 251 15 8 341 344 341 328 318 300 279 273 249 224 204 122 111 259 261 250 230 224 258 244 213 235 212 204 218 220 212 214 217 207 208 203 174 171 186
334 335 278 222 181 181 174 240 308 337 320 1 353 312 325 354 339 349 324 255 232 243 258 224 216 243 237 152 163 171 173 178 188 191 185 188 198 204 200 207 220 216 224 236 189 156 231 251 242 241 29 28 3 342 328 309 298 282 272 264 253 250 246 220 109 120 201 251 258 244 230 260 254 225 221 222 222 222 219 216 214 217 215 211 209 191 179 178
335 326 253 188 186 192 197 283 313 320 314 357 346 312 347 7 346 334 325 282 238 228 235 232 229 235 226 193 192 196 201 194 183 178 178 188 203 208 185 193 230 226 197 211 230 206 218 244 238 155 52 0 325 308 282 272 272 261 254 258 252 246 246 127 110 182 204 237 260 248 227 243 251 236 210 209 231 231 221 222 219 217 220 214 207 200 180 166
325 303 252 200 200 217 242 284 305 301 310 327 314 312 338 346 332 320 307 284 259 216 215 212 208 209 200 199 192 193 217 209 177 170 178 193 207 218 215 211 230 228 194 203 231 242 229 239 181 107 85 271 248 242 249 250 249 249 247 251 251 245 255 215 151 210 232 253 275 279 260 247 254 243 215 210 228 232 219 222 223 217 221 218 208 201 187 175
330 298 261 216 214 229 249 276 293 296 312 313 296 297 321 322 324 322 299 279 260 189 192 199 203 207 192 182 181 199 227 232 189 172 173 196 207 208 233 243 231 224 226 216 228 251 256 89 100 116 150 237 244 227 232 249 240 233 239 255 263 253 267 277 177 190 244 239 253 272 265 247 245 237 223 212 216 221 212 214 219 213 213 217 212 207 199 189
339 306 270 236 231 231 256 278 285 291 290 292 281 274 318 318 319 324 297 272 250 167 174 187 197 204 182 172 183 207 236 234 209 172 165 197 218 207 228 241 236 239 230 200 221 253 254 91 121 183 206 227 244 238 224 240 254 238 224 237 267 272 265 259 221 199 245 237 210 233 256 250 242 236 226 204 200 212 210 207 211 208 206 206 210 216 215 203
341 315 287 256 247 235 261 289 281 273 270 268 261 284 316 315 309 314 289 261 211 158 165 180 190 186 176 188 188 208 242 202 182 168 173 205 230 253 257 204 213 261 267 170 242 259 137 111 186 205 228 231 237 248 231 226 252 262 234 222 245 261 254 249 245 230 252 263 179 198 260 268 248 232 222 207 202 207 207 207 208 203 201 202 205 209 212 211
344 322 297 275 262 241 249 271 252 270 281 270 278 304 314 306 303 307 265 253 192 162 162 166 177 171 172 187 187 204 235 158 163 184 196 209 215 240 255 216 208 238 260 238 249 259 138 151 201 204 232 238 232 245 232 224 250 270 330 253 238 250 248 244 255 249 261 277 200 197 240 265 260 228 197 204 213 210 203 201 205 200 197 201 208 211 208 205
348 323 301 286 263 236 237 252 254 276 303 310 296 303 308 298 299 283 250 258 157 157 163 155 154 168 175 182 200 219 225 152 190 188 186 206 208 218 237 248 255 210 182 224 233 198 203 201 208 214 230 238 240 259 237 224 248 277 346 274 257 259 254 245 253 251 259 270 249 227 230 251 262 236 180 193 222 231 212 194 200 206 200 197 202 207 202 187
348 324 302 271 228 219 240 246 253 281 311 315 300 299 295 290 287 243 253 267 160 166 153 147 162 185 191 193 205 220 220 201 206 158 168 202 210 226 254 267 278 265 180 232 244 196 209 225 232 227 233 242 244 279 266 227 244 279 298 263 251 253 248 243 250 251 251 249 253 250 235 242 263 248 203 197 225 242 214 185 193 202 198 185 173 181 192 190
347 329 294 238 198 10 289 261 253 293 309 304 295 298 289 272 248 238 240 226 180 169 152 161 167 178 195 201 196 205 212 207 192 163 182 199 197 219 255 269 270 268 223 229 244 231 180 192 259 248 246 264 270 262 249 249 259 268 263 252 242 243 241 239 248 255 256 243 244 247 238 239 254 252 224 175 231 274 194 164 177 187 183 160 150 196 200 203
341 328 279 222 194 193 262 262 244 285 302 298 292 289 267 246 236 247 233 183 198 168 170 191 172 172 199 209 197 195 208 202 186 188 194 192 190 205 226 224 231 252 240 228 242 249 216 198 217 220 232 264 276 245 228 233 249 251 246 244 239 238 235 238 242 239 248 255 253 245 231 231 246 260 240 136 148 276 170 156 160 160 145 99 76 240 164 2
324 314 260 227 218 213 251 269 259 276 297 305 295 264 251 244 237 244 212 176 205 171 182 196 183 192 207 214 204 191 201 197 191 205 208 200 198 208 221 217 220 242 240 232 227 234 238 232 222 200 204 239 252 242 218 208 224 239 237 237 241 239 228 235 238 226 237 251 253 228 210 225 253 262 185 151 148 134 122 121 121 118 78 69 68 58 49 19
308 299 261 238 242 243 256 269 270 283 309 315 289 257 248 252 249 254 220 189 169 148 196 189 184 204 211 218 212 190 194 192 197 216 221 220 214 210 230 237 249 256 244 251 246 221 230 233 223 210 193 210 241 253 230 208 217 234 238 236 241 244 240 243 242 233 241 238 195 63 278 245 262 259 143 141 120 113 130 120 107 112 94 75 60 59 53 39
295 290 269 247 247 251 256 268 275 286 310 305 275 250 243 252 257 269 251 222 168 167 217 197 203 214 219 229 210 191 212 198 201 221 212 220 230 216 226 229 235 252 248 252 259 250 257 242 208 219 187 179 233 254 264 269 253 241 246 244 244 254 256 256 262 264 268 258 197 151 217 254 252 194 111 118 121 128 137 132 124 120 106 88 69 60 53 47
296 287 276 260 251 252 256 263 267 272 291 284 264 249 242 247 249 246 249 233 171 200 207 197 225 227 217 224 202 201 234 210 207 235 229 227 237 223 226 219 212 244 254 252 246 242 269 269 172 191 206 201 238 253 268 274 262 244 250 245 241 255 261 266 281 287 305 302 253 195 215 259 164 139 139 130 138 143 141 140 135 123 109 96 84 73 62 57
307 291 282 269 245 249 254 255 256 260 273 268 255 248 241 244 259 271 289 333 273 241 222 204 224 238 223 212 207 202 207 212 219 233 235 236 243 231 223 209 207 253 261 267 272 253 265 264 147 175 216 224 253 277 257 255 269 264 248 250 257 264 266 270 270 261 246 262 259 234 237 244 178 166 167 161 160 152 154 155 139 124 113 100 89 79 70 65
295 279 272 248 219 239 250 247 245 247 256 257 250 254 257 258 275 300 321 305 295 279 259 238 218 237 241 220 218 207 190 207 228 232 239 229 219 219 214 188 215 271 284 286 276 276 274 271 232 227 231 208 242 278 263 249 264 273 258 269 282 267 263 268 266 255 247 254 251 241 248 245 229 203 170 182 189 167 169 163 138 132 121 105 92 83 74 69
281 272 262 233 216 241 248 240 236 237 247 251 247 252 263 265 258 273 293 279 278 261 251 257 226 220 249 241 233 220 194 206 221 221 241 225 168 178 218 197 180 243 290 291 262 259 283 275 261 245 240 206 205 252 260 242 236 251 273 295 280 257 253 248 254 257 256 264 262 252 257 252 245 226 175 190 192 169 177 171 149 145 125 108 98 89 80 72
274 269 251 213 214 244 245 234 229 233 242 245 244 244 250 253 234 238 288 269 267 260 249 258 247 220 243 251 250 232 210 231 242 228 238 232 178 174 224 230 177 189 245 273 273 287 274 272 269 244 238 238 227 235 251 244 222 229 257 267 254 257 268 261 257 263 261 264 270 269 264 252 253 221 165 191 196 173 178 178 157 137 119 111 101 94 86 79
270 265 232 183 208 240 230 223 224 229 240 242 247 252 253 256 232 208 258 266 265 264 260 267 262 242 245 252 260 252 228 240 257 255 245 229 191 180 200 232 214 188 203 261 276 290 256 264 273 259 238 236 244 242 256 270 249 231 241 245 242 246 260 268 261 255 261 266 269 273 266 256 10 59 132 202 210 181 173 169 147 128 120 112 102 98 93 88
265 259 203 170 201 219 208 217 222 229 241 237 245 258 274 294 259 221 217 249 265 263 263 280 280 268 263 258 256 254 246 244 248 256 253 232 222 212 170 157 229 240 237 243 254 271 262 264 266 266 255 243 250 266 293 296 293 281 274 270 268 259 254 263 262 253 259 266 269 273 270 272 62 66 221 232 204 173 166 159 142 133 127 115 107 105 100 97
248 245 171 173 199 198 209 230 229 231 241 242 251 261 280 325 264 252 230 228 245 249 244 263 274 271 269 266 259 254 255 253 249 253 254 249 248 214 118 118 205 278 280 265 279 48 14 290 272 266 264 266 273 278 252 283 289 281 276 275 278 275 265 264 265 271 279 276 277 280 276 295 49 305 250 211 180 162 161 153 140 135 131 123 118 111 104 103
255 262 356 261 219 201 220 243 236 234 237 242 254 255 242 250 249 250 246 232 234 242 240 249 262 261 260 260 264 263 259 260 262 261 258 259 254 104 118 128 167 250 249 268 276 100 106 261 262 265 264 266 269 249 209 226 264 265 261 258 260 262 267 272 276 284 285 274 275 278 267 258 58 355 356 134 146 148 155 157 148 141 136 133 127 119 113 110
287 282 291 304 242 207 225 248 241 241 236 229 240 241 229 242 253 256 255 239 233 252 256 259 262 259 261 263 266 268 265 262 261 258 260 266 141 107 125 123 207 246 243 331 334 83 153 251 249 262 265 255 252 241 221 218 240 254 254 249 253 268 275 277 278 277 269 264 264 267 268 249 109 96 171 146 162 169 172 173 162 153 150 144 133 126 124 119
295 269 237 256 213 211 234 271 273 269 264 236 239 246 233 221 234 265 276 267 263 282 274 266 272 271 266 264 261 262 264 265 261 254 257 265 157 118 143 151 217 254 1 41 351 308 270 270 266 265 265 258 251 249 248 245 247 270 267 249 242 266 278 275 273 264 257 265 264 261 270 262 141 180 211 203 206 201 188 181 170 164 163 155 141 136 135 130
297 284 230 228 219 223 237 279 279 271 283 264 246 249 246 233 205 216 262 260 247 266 268 264 273 270 261 263 261 258 258 252 246 248 251 253 220 147 154 189 223 259 63 61 310 278 266 264 262 261 263 267 273 281 298 298 278 280 284 268 246 246 261 267 272 267 266 275 270 261 270 269 218 201 209 214 223 220 203 195 194 183 167 158 151 147 147 146
305 350 355 335 301 238 217 244 286 275 277 273 264 258 256 255 238 184 209 242 244 259 262 257 258 256 253 259 259 256 259 251 242 243 248 255 244 159 140 208 220 121 91 164 227 246 264 256 252 258 261 265 275 282 286 286 278 276 279 274 264 260 262 259 256 268 281 282 270 267 276 276 264 246 230 217 224 237 227 216 221 212 185 180 177 168 174 180
349 24 21 348 311 303 341 359 335 320 293 260 263 278 266 259 258 223 204 247 258 245 252 250 251 254 251 254 256 253 257 256 248 245 246 252 255 202 154 212 209 146 160 227 213 214 261 261 256 260 261 263 269 274 274 275 275 273 269 267 268 269 267 263 256 261 270 269 269 283 290 285 283 284 277 265 248 254 249 235 234 230 214 212 211 214 227 219
11 26 37 342 311 6 1 333 316 302 306 333 313 286 281 262 253 264 283 293 266 238 270 267 249 255 263 263 264 258 261 267 260 255 257 264 269 259 221 223 213 182 213 237 229 230 264 266 263 269 272 270 268 270 272 272 272 270 265 262 263 263 263 263 263 261 262 263 268 280 283 279 279 285 288 293 293 277 263 245 239 236 229 231 234 235 235 227
8 3 359 316 299 34 348 316 297 270 231 202 266 258 293 279 266 271 295 324 291 260 294 278 252 250 279 277 271 280 331 341 324 300 306 290 271 264 256 255 247 225 232 244 237 207 220 263 272 278 277 272 272 273 270 271 271 268 264 260 259 261 262 261 261 262 262 264 268 272 274 276 279 281 279 275 269 264 253 236 234 237 236 239 242 239 235 229
4 348 343 316 312 11 321 299 297 277 237 125 318 305 286 279 288 282 294 352 334 314 326 306 291 277 262 254 259 12 11 358 352 358 335 291 277 275 273 280 285 260 243 247 243 205 212 268 281 278 268 267 271 269 269 282 281 267 263 264 261 261 263 262 262 263 263 266 271 273 272 271 273 277 274 267 262 259 253 245 242 243 245 248 247 243 242 237
10 352 348 322 306 9 320 287 259 291 339 49 5 336 299 286 285 278 285 305 310 11 356 328 315 289 263 255 28 22 353 336 332 327 306 284 279 276 270 273 281 278 265 258 253 242 244 264 274 272 268 268 269 269 282 323 300 268 262 268 263 258 256 257 259 260 259 260 262 263 264 271 282 292 288 279 272 267 267 266 261 259 258 255 248 246 245 236